www.pogodaiklimat.ru

Погода и климат >> Архив погоды >> Россия >> Сахалинская область >> Северо-Курильск


АРХИВ ПОГОДЫ в Северо-Курильске

Время (UTC), дата Ветер
(напр.,м/с)
 
Видим.   Явления Облачность Т
(С)
Тd
(С)
f
(%)
Тe
(С)
Тes
(С)
Комфортность P
(гПа)
Po
(гПа)
Тmin
(С)
Tmax
(С)
R
(мм)
R24
(мм)
S
(см)
09 11.02 ЮЗ 4-8
{14}
4000 м слаб. ливневой снег {метель} 10/10 600 м
[Cb cap]
-9.0 -13.8 68 -16 -16 прохладно 1011.4 1008.3 -5.7 2
12 11.02 ЮЗ 4-13
{13}
2000 м слаб. ливневой снег {метель} 10/10 600 м
[Cb cap]
-9.1 -11.9 80 -16 -16 прохладно 1012.3 1009.2
15 11.02 З 7-14
{16}
2000 м слаб. ливневой снег {метель} 10/10 600 м
[Cb cap]
-9.2 -13.2 73 -18 -18 холодно 1012.0 1008.8
18 11.02 ЮЗ 8-13
{16}
4000 м слаб. ливневой снег {метель} 10/10 600 м
[Cb cap]
-9.2 -14.6 65 -19 -19 холодно 1013.6 1010.4
21 11.02 ЮЗ 4-6
{13}
20 км слаб. ливневой снег 9/9 600 м
[Cb cap]
-9.4 -14.9 64 -16 -16 прохладно 1014.7 1011.5 -10.0 2 63
00 12.02 Ю 4-7
{12}
1300 м ливневой снег 10/10 600 м
[Cb cap]
-9.7 -13.3 75 -17 -17 холодно 1015.6 1012.5
03 12.02 ЮЗ 4-7
{12}
4000 м слаб. ливневой снег 9/9 600 м
[Cb cap]
-9.1 -14.9 63 -16 -16 холодно 1015.5 1012.3
06 12.02 ЮЗ 5-8
{12}
12 км слаб. ливневой снег 8/8 600 м
[Cb cap]
-8.9 -15.7 58 -16 -16 прохладно 1015.8 1012.7
09 12.02 Ю 1-5
{10}
4000 м слаб. ливневой снег 10/10 600 м
[Cb cap]
-9.1 -15.1 62 -11 -11 по сезону 1016.5 1013.3 -8.6 2
12 12.02 ЮЗ 2-3
{5}
4000 м {ливн. осадки} 9/9 600 м
[Cb cap]
-10.3 -15.6 65 -15 -15 прохладно 1016.6 1013.4
15 12.02 ЮЗ 3-5
{9}
4000 м слаб. ливневой снег 8/8 50 м
[Cb cap]
-8.9 -15.5 59 -15 -15 прохладно 1016.4 1013.2
18 12.02 З 3-5
{7}
4000 м {ливн. осадки} 4/4 1000 м
[Cb cap]
-9.5 -19.0 46 -15 -15 прохладно 1014.8 1011.7
21 12.02 ЮЗ 1-3
{7}
27 км 10/3 1000 м
[Cu Sc Cs]
-10.6 -19.3 49 -13 -13 по сезону 1014.7 1011.5 -11.8 0.5 65
00 13.02 СЗ 2-6
{4}
26 км 10/10 600 м
[Cb cap]
-7.4 -15.7 51 -11 -11 по сезону 1012.5 1009.4
03 13.02 СЗ 5-8
{9}
19 км 10/10 600 м
[Cb cap]
-6.9 -15.0 52 -14 -14 прохладно 1007.9 1004.8
06 13.02 СЗ 8-17
{17}
200 м ливневой снег {метель} 10/10 600 м
[Cb cap]
-7.6 -10.5 80 -17 -17 холодно 1002.5 999.5
09 13.02 СЗ 12-18
{21}
200 м ливневой снег {метель} 10/10 600 м
[Cb cap]
-6.7 -8.3 88 -18 -18 холодно 996.9 993.8 -6.7 4
12 13.02 СЗ 11-20
{23}
50 м ливневой снег {метель} 10/10 600 м
[Cb cap]
-6.0 -7.2 91 -16 -16 прохладно 991.5 988.5
15 13.02 СЗ 14-21
{25}
50 м ливневой снег {метель} 10/10 600 м
[Cb cap]
-5.2 -6.4 91 -16 -16 прохладно 988.0 985.0
18 13.02 СЗ 13-20
{23}
200 м ливневой снег {метель} 10/10 600 м
[Cb cap]
-4.9 -6.1 91 -16 -16 прохладно 986.5 983.5
21 13.02 СЗ 10-18
{22}
50 м ливневой снег {метель} 10/10 600 м
[Cb cap]
-4.5 -5.7 91 -14 -14 прохладно 986.2 983.2 -6.7 18 90
00 14.02 СЗ 8-16
{18}
500 м ливневой снег {метель} 10/10 600 м
[Cb cap]
-3.7 -5.3 89 -12 -12 по сезону 986.2 983.2
03 14.02 СЗ 11-16
{18}
1000 м ливневой снег {метель} 10/10 600 м
[Cb cap]
-3.1 -5.8 82 -13 -13 по сезону 984.1 981.1
06 14.02 СЗ 11-20
{21}
1800 м слаб. ливневой снег {метель} 10/10 600 м
[Cb cap]
-3.5 -6.1 82 -13 -13 по сезону 983.4 980.5
09 14.02 СЗ 11-18
{24}
2000 м слаб. ливневой снег {метель} 10/10 600 м
[Cb cap]
-3.4 -6.4 80 -13 -13 по сезону 985.2 982.2 -2.4 7
12 14.02 СЗ 12-22
{26}
500 м ливневой снег {метель} 10/10 600 м
[Cb cap]
-4.5 -6.3 87 -15 -15 прохладно 986.4 983.4
15 14.02 СЗ 13-24
{29}
500 м ливневой снег {метель} 10/10 600 м
[Cb cap]
-5.0 -7.3 84 -16 -16 прохладно 987.1 984.0
18 14.02 З 9-17
{24}
1000 м ливневой снег {метель} 10/10 600 м
[Cb cap]
-4.6 -8.4 75 -14 -14 по сезону 988.2 985.2
21 14.02 З 11-18
{24}
500 м ливневой снег {метель} 10/10 600 м
[Cb cap]
-5.2 -10.1 68 -15 -15 прохладно 989.2 986.1 -6.0 7 72
00 15.02 СЗ 12-21
{24}
1000 м ливневой снег {метель} 10/10 600 м
[Cb cap]
-6.2 -9.1 80 -17 -17 холодно 990.4 987.4 -6.3
03 15.02 СЗ 10-18
{22}
1000 м ливневой снег {метель} 10/10 600 м
[Cb cap]
-6.3 -9.7 77 -16 -16 прохладно 992.1 989.1
06 15.02 СЗ 11-20
{22}
1000 м слаб. ливневой снег {метель} 10/10 600 м
[Cb cap]
-6.6 -12.4 63 -17 -17 холодно 993.5 990.5
09 15.02 З 7-17
{22}
4000 м слаб. ливневой снег {метель} 9/9 600 м
[Cb cap]
-7.5 -10.6 78 -16 -16 прохладно 994.9 991.9 -5.1 7
12 15.02 СЗ 7-11
{17}
4000 м слаб. ливневой снег {метель} 10/10 600 м
[Cb cap]
-7.5 -12.3 68 -16 -16 прохладно 995.8 992.7
15 15.02 З 9-16
{19}
4000 м слаб. ливневой снег {метель} 10/10 600 м
[Cb cap]
-8.4 -10.8 83 -18 -18 холодно 995.6 992.5
18 15.02 З 8-15
{20}
4000 м слаб. ливневой снег {метель} 10/10 600 м
[Cb cap]
-8.4 -13.0 69 -18 -18 холодно 995.7 992.7
21 15.02 ЮЗ 3-11
{20}
2000 м слаб. ливневой снег {метель} 10/10 600 м
[Cb cap]
-9.1 -12.1 79 -15 -15 прохладно 996.5 993.4 -9.6 3 68
00 16.02 З 3-8
{11}
6000 м слаб. ливневой снег {метель} 8/8 600 м
[Cb cap]
-6.7 -17.5 42 -12 -11 по сезону 996.3 993.3
03 16.02 ЮЗ 4-11
{14}
3400 м слаб. ливневой снег {метель} 9/9 600 м
[Cb cap]
-7.8 -14.4 59 -14 -14 прохладно 995.1 992.0
06 16.02 ЮЗ 6-8
{14}
1000 м ливневой снег {метель} 10/10 600 м
[Cb cap]
-8.6 -13.3 69 -17 -17 холодно 994.9 991.9
09 16.02 З 3-4
{10}
4000 м слаб. ливневой снег {метель} 9/9 600 м
[Cb cap]
-8.6 -16.4 53 -14 -14 по сезону 994.8 991.7 -6.5 2
12 16.02 ЮЗ 2-3
{8}
4000 м слаб. ливневой снег {метель} 9/9 600 м
[Cb cap]
-9.2 -15.7 59 -13 -13 по сезону 994.7 991.6
15 16.02 ЮЗ 3-8
{8}
4000 м слаб. ливневой снег 8/8 600 м
[Cb cap]
-9.4 -14.5 66 -15 -15 прохладно 994.3 991.3
18 16.02 ЮЗ 3-5
{9}
4000 м слаб. ливневой снег 10/10 600 м
[Cb cap]
-8.7 -14.5 63 -14 -14 по сезону 993.9 990.9
21 16.02 ЮЗ 4-6
{8}
1000 м ливневой снег 10/10 600 м
[Cb cap]
-8.6 -13.3 69 -15 -15 прохладно 993.9 990.8 -10.3 3 73
00 17.02 З 4-8
{8}
19 км в посл. час ливневой снег 9/9 600 м
[Cb cap]
-7.3 -12.9 64 -14 -13 прохладно 994.1 991.1
03 17.02 ЮЗ 3-8
{10}
2300 м слаб. ливневой снег 9/9 600 м
[Cb cap]
-7.3 -13.6 61 -13 -12 по сезону 994.0 991.0
06 17.02 Ю 1-1
{8}
9000 м слаб. ливневой снег 9/9 600 м
[Cb cap]
-8.8 -12.5 75 -11 -11 по сезону 994.8 991.7
09 17.02 СЗ 1-2
{5}
4000 м слаб. ливневой снег 8/8 600 м
[Cb cap]
-9.3 -12.3 79 -12 -12 по сезону 996.2 993.2 -6.2 4
12 17.02 ЮЗ 3-4
{4}
4000 м {ливн. осадки} 6/3 600 м
[Cb cap Ci fib]
-9.4 -17.3 53 -15 -15 прохладно 997.1 994.0
15 17.02 штиль 0-2
{4}
2000 м слаб. ливневой снег 10/10 600 м
[Cb cap]
-9.5 -12.4 79 -10 -10 по сезону 997.8 994.7
18 17.02 штиль 0
{3}
4000 м в посл. час ливневой снег 10/10 600 м
[Cb cap]
-10.5 -16.2 63 -11 -11 по сезону 997.7 994.6
21 17.02 ЮЗ 1-2
{4}
1000 м ливневой снег 10/10 600 м
[Cb cap]
-8.3 -12.2 73 -11 -11 по сезону 998.8 995.7 -12.2 0.6 75
00 18.02 штиль 0
{2}
35 км {ливн. осадки} 8/3 1000 м
[Cu hum Ci fib]
-5.4 -13.6 52 -6 -3 по сезону 999.9 996.8
03 18.02 штиль 0
{2}
45 км 6/3 1000 м
[Cu hum Ci sp]
-0.8 -15.8 31 -1 +3 тепло 999.9 996.9
06 18.02 ЮВ 1-2
{5}
40 км 8/4 600 м
[Cb cap Cc]
-5.9 -14.4 51 -8 -8 по сезону 1001.8 998.7

 

Местоположение метеостанции Северо-Курильск (Сахалинская область, Россия): широта 50.68 долгота 156.10 высота над уровнем моря 23 м.

В архиве по умолчанию представлена погода в Северо-Курильске за последнюю неделю. Архивные данные за месяц целиком и за предыдущие месяцы, начиная с января 2011 года, Вы можете получить, выбрав интересующий диапазон дат из раскрывающегося списка и нажав кнопку "Ввод!".


*Определитесь, кто Вы:
робот инопланетянин человек

Внимание! Время в таблицах - всемирное. Для получения местного времени необходимо прибавить поправку, которая равна 12 ч.

Смотрите также архив погоды в соседних городах и на ближайших метеорологических станциях:

Погода на Мысе Лопатка (Камчатский край, Россия) (41 км)
Погода в Озерной (Камчатский край, Россия) (91 км)
Погода в Водопадной (Камчатский край, Россия) (183 км)
Погода в Большерецке (Камчатский край, Россия) (240 км)
Погода в Начиках (Камчатский край, Россия) (293 км)
Погода в Петропавловск-Камчатском (Камчатский край, Россия) (298 км)
Погода в Петропавловском Маяке (Камчатский край, Россия) (303 км)
Погода в Сосновке (Камчатский край, Россия) (307 км)
Погода в Петропавловск-Камч. 2 (Камчатский край, Россия) (314 км)
Погода в Соболево (Камчатский край, Россия) (403 км)

Пояснения к столбцам:

Ветер - указаны скорость ветра в м/с - средняя за 10 мин, порывы в срок и между сроками (в фигурных скобках) и направление, откуда дует ветер: С - северный, СВ - северо-восточный, В - восточный, ЮВ - юго-восточный, Ю - южный, ЮЗ - юго-западный, З - западный, СЗ - северо-западный.
Видимость - горизонтальная дальность видимости в метрах или километрах. При видимости от 1 до 10 км при отсутствии осадков обычно наблюдается дымка, при ухудшении видимости до 1 км и менее - туман. В сухую погоду видимость может ухудшаться дымом, пылью или мглою.
Явления - указаны атмосферные явления, наблюдавшиеся в срок или в последний час перед сроком; фигурными скобками обозначены явления, наблюдавшиеся между сроками (за 1-3 часа до срока); квадратными скобками обозначены град или гололедные отложения с указанием их диаметра в мм.
Облачность - указаны через наклонную черту общая и нижняя облачность в баллах и высота нижней границы облаков в метрах; квадратными скобками обозначены формы облаков: Ci - перистые, Cs - перисто-слоистые, Cc - перисто-кучевые, Ac - высококучевые, As - высокослоистые, Sc - слоисто-кучевые, Ns - слоисто-дождевые, Cu - кучевые, Cb - кучево-дождевые. Подробнее классификацию облаков см. в Атласе облаков (PDF).
T - Температура воздуха - температура, измеренная на высоте 2 м над землей.
Td - Температура точки росы - температура, при понижении до которой содержащийся в воздухе водяной пар достигнет насыщения.
f - Относительная влажность воздуха - влажноcть воздуха, измеренная на высоте 2 м над землей.
Te - Эффективная температура - температура, которую ощущает одетый по сезону человек в тени. Характеристика душности погоды. При расчете учитывается влияние влажности воздуха и скорости ветра на теплоощущения человека.
Tes - Эффективная температура на солнце - температура, которую ощущает человек, с поправкой на солнечный нагрев. Характеристика знойности погоды. Зависит от высоты солнца над горизонтом, облачности и скорости ветра. Ночью, в пасмурную погоду, а также при ветре 12 м/с и более поправка равна нулю.
P - Атмосферное давление - приведенное к уровню моря атмосферное давление.
Po - Атмосферное давление - измеренное на уровне метеостанции атмосферное давление.
Tmin - Минимальная температура - минимум температуры воздуха на высоте 2 м над землей.
Tmax - Максимальная температура - максимум температуры воздуха на высоте 2 м над землей.
R - Количество осадков - Количество выпавших осадков за период времени, мм. При наведении курсора мыши на число - период времени, за который выпало указанное количество осадков.
R24 - Количество осадков - Количество выпавших осадков за 24 часа, мм.
S - Снежный покров - Высота снежного покрова, см. При наведении курсора мыши на число - состояние снежного покрова и степень покрытия местности в баллах.